This is the latest recevied weather packets stored in our database for station/object CT1ETE-13. If no packets are shown the sender has not sent any weather packets the latest 10 day(s).
| Time | Temp. | Humidity | Pressure | Rain* | Wind** | Luminosity | Snow |
|---|---|---|---|---|---|---|---|
| 1777581931 | 13.33° C | 84% | 1018.9 hPa | 0 mm | - | - | - |
| 1777581032 | 13.89° C | 84% | 1018.9 hPa | 0 mm | - | - | - |
| 1777580132 | 13.89° C | 83% | 1018.6 hPa | 0 mm | - | - | - |
| 1777579231 | 14.44° C | 82% | 1018.3 hPa | 0 mm | - | - | - |
| 1777578393 | 14.44° C | 81% | 1018.2 hPa | 0 mm | - | - | - |
| 1777577435 | 15° C | 79% | 1018 hPa | 0 mm | - | - | - |
| 1777576530 | 15° C | 78% | 1018 hPa | 0 mm | - | - | - |
| 1777575638 | 15.56° C | 77% | 1017.8 hPa | 0 mm | - | - | - |
| 1777574788 | 16.11° C | 75% | 1017.8 hPa | 0 mm | - | - | - |
| 1777573827 | 16.11° C | 73% | 1017.6 hPa | 0 mm | - | - | - |
| 1777572928 | 16.67° C | 73% | 1017.5 hPa | 0 mm | - | - | - |
| 1777572036 | 16.67° C | 73% | 1017.6 hPa | 0 mm | - | - | - |
| 1777571125 | 16.67° C | 73% | 1017.6 hPa | 0 mm | - | - | - |
| 1777570291 | 17.22° C | 71% | 1017.6 hPa | 0 mm | - | - | - |
| 1777569385 | 17.22° C | 69% | 1017.5 hPa | 0 mm | - | - | - |
| 1777568494 | 17.22° C | 67% | 1017.5 hPa | 0 mm | - | - | - |
| 1777567525 | 17.78° C | 66% | 1017.4 hPa | 0 mm | - | - | - |
| 1777566633 | 17.22° C | 70% | 1017.4 hPa | 0 mm | - | - | - |
| 1777565783 | 16.67° C | 71% | 1017.4 hPa | 0 mm | - | - | - |
| 1777564828 | 16.67° C | 72% | 1017.4 hPa | 0 mm | - | - | - |
| 1777563983 | 16.67° C | 73% | 1017.3 hPa | 0 mm | - | - | - |
| 1777563031 | 16.11° C | 74% | 1017.3 hPa | 0 mm | - | - | - |
| 1777562117 | 16.11° C | 75% | 1017.5 hPa | 0 mm | - | - | - |
| 1777561217 | 15.56° C | 75% | 1017.6 hPa | 0 mm | - | - | - |
| 1777560317 | 15.56° C | 76% | 1017.5 hPa | 0 mm | - | - | - |
* Rain latest hour (hover to see other rain measurements)
** Current wind speed in m/s (hover to see current wind gust speed)